Weather in Tobago

Trinidad and Tobago     11°09′01″N   60°50′12″W
temp.,
°C
wind,
m/s
gust,
m/s
humid.,
%
clouds,
%
prec.,
mm/h
press.,
hPa
HPBL,
m
1 march, mon
mon123:00+26ne10127618 0.2 10131097
02:00+25ne10117516 0.4 10111181
05:00+25ne911740 0.3 10111155
08:00+25ne910740 0.4 10121118
11:00+25ne910743 0.4 10141130
14:00+25ne9107513 1.3 10111073
17:00+25ne910760 0.1 1010995
20:00+25ne910770 0.3 10111001
2 march, tue
tue223:00+25ne99774 0.4 10131020
02:00+25ne89784 0.9 1011927
05:00+25ne99773 0.1 1011921
08:00+25ne910772 0.1 1013935
11:00+25ene78753 0.0 1014973
14:00+25ene67752 0.0 1012921
17:00+26ene67761 0.0 1011962
20:00+25ne897916 0.1 10131009
3 march, wed
wed323:00+25ne9107951 0.1 1014938
02:00+25ene9107942 0.2 1013970
05:00+25ene910780 0.4 10131017
08:00+26ene911771 1.0 10151054
11:00+26ene89780 0.1 10151050
14:00+26e89775 0.4 1014916
17:00+26ene897824 0.3 10121001
20:00+26ene897816 0.3 1013998
4 march, thu
thu423:00+26e810802 0.1 1014910
02:00+26e89819 0.4 1013816
05:00+26ene89804 0.8 1013869
08:00+26e9108111 0.9 1015854
11:00+26e910817 1.4 1015758
14:00+26e8108342 7.1 1013659
17:00+25e9118698 2.8 1012765
20:00+26e9108477 3.3 1013861
5 march, fri
fri523:00+26e9118193 0.7 1014884
02:00+26e9108083 0.8 1012909
05:00+26e9108080 0.1 1011972
08:00+26e798071 0.1 1013763
11:00+26e8118030 0.7 1014748
14:00+26e8108225 1.0 1012731
17:00+26e9108286 0.1 1011863
20:00+26e9118393 0.2 1012883